WZ8H Weather Reports


Display with metric or nautical units.
time (UTC)temp
F
wind
direction
speed
MPH
gust
MPH
rain 1hr
in
rain 24hr
in
rain mn
in
humidity
%
barometer
mb
20260510201558 59 98 5.0 8.0 0.00 0.07 0.00 48 1017.6
20260510201059 59 88 5.0 8.0 0.00 0.07 0.00 45 1017.6
20260510200557 60 84 5.0 9.0 0.00 0.07 0.00 46 1017.6
20260510200030 59 94 5.0 9.0 0.00 0.07 0.00 50 1017.6
20260510195516 59 89 7.0 9.0 0.00 0.07 0.00 47 1017.8
20260510195019 59 87 6.0 9.0 0.00 0.07 0.00 44 1017.8
20260510194452 60 90 4.0 9.0 0.00 0.07 0.00 48 1017.6
20260510193949 60 105 3.0 9.0 0.00 0.07 0.00 45 1017.8
20260510193422 60 119 3.0 7.0 0.00 0.07 0.00 48 1017.8
20260510192919 60 91 4.0 8.0 0.00 0.07 0.00 49 1017.9
20260510192351 60 96 4.0 8.0 0.00 0.07 0.00 49 1017.8
20260510191850 59 86 4.0 8.0 0.00 0.07 0.00 49 1017.9
20260510191344 59 94 4.0 8.0 0.00 0.07 0.00 52 1018.0
20260510190841 59 89 4.0 8.0 0.00 0.07 0.00 51 1018.0
20260510190315 58 115 5.0 9.0 0.00 0.07 0.00 53 1018.0
20260510185747 58 90 5.0 9.0 0.00 0.07 0.00 54 1018.0
20260510185245 58 86 5.0 8.0 0.00 0.07 0.00 55 1018.0
20260510184718 58 94 4.0 8.0 0.00 0.07 0.00 54 1018.0
20260510184216 58 87 3.0 6.0 0.00 0.07 0.00 52 1017.9
20260510183646 58 89 3.0 7.0 0.00 0.07 0.00 54 1017.9
20260510183143 59 90 3.0 7.0 0.00 0.07 0.00 53 1017.9
20260510182637 59 84 3.0 6.0 0.00 0.07 0.00 55 1017.9
20260510182134 59 111 2.0 4.0 0.00 0.07 0.00 54 1017.9
20260510181631 59 109 2.0 4.0 0.00 0.07 0.00 60 1017.8
20260510181128 59 82 3.0 7.0 0.00 0.07 0.00 60 1017.6
20260510180613 58 85 3.0 7.0 0.00 0.07 0.00 61 1017.6
20260510180106 58 86 3.0 6.0 0.00 0.07 0.00 63 1017.6
20260510175603 57 105 2.0 4.0 0.00 0.07 0.00 65 1017.7
20260510175035 57 105 3.0 4.0 0.00 0.07 0.00 66 1017.7
20260510174511 57 116 3.0 6.0 0.00 0.07 0.00 65 1017.6
20260510174012 58 118 3.0 9.0 0.00 0.07 0.00 66 1017.6
20260510173515 58 89 4.0 9.0 0.00 0.07 0.00 66 1017.5
20260510172948 57 104 3.0 6.0 0.00 0.07 0.00 65 1017.5
20260510172448 58 109 3.0 8.0 0.00 0.07 0.00 65 1017.7
20260510171944 58 86 3.0 8.0 0.00 0.07 0.00 66 1017.7
20260510171439 58 88 3.0 6.0 0.00 0.07 0.00 66 1017.8
20260510170936 58 94 3.0 6.0 0.00 0.07 0.00 67 1017.8
20260510170439 57 96 3.0 6.0 0.00 0.07 0.00 65 1017.9
20260510165918 57 119 3.0 6.0 0.00 0.07 0.00 65 1017.9
20260510165413 57 92 2.0 4.0 0.00 0.07 0.00 64 1017.8
20260510164844 57 104 2.0 4.0 0.00 0.07 0.00 64 1017.8
20260510164330 57 128 3.0 4.0 0.00 0.07 0.00 65 1017.8
20260510163827 56 107 3.0 4.0 0.00 0.07 0.00 65 1017.9
20260510163328 56 86 3.0 7.0 0.00 0.07 0.00 65 1017.7
20260510162814 56 86 3.0 7.0 0.00 0.07 0.00 65 1017.6
20260510162252 56 86 3.0 6.0 0.00 0.07 0.00 65 1017.6
20260510161753 55 126 3.0 6.0 0.00 0.07 0.00 66 1017.6
20260510161254 55 109 4.0 8.0 0.00 0.07 0.00 67 1017.5
20260510160731 55 93 5.0 8.0 0.00 0.07 0.00 66 1017.3
20260510160206 55 86 5.0 8.0 0.00 0.07 0.00 66 1017.3
20260510155645 55 90 5.0 8.0 0.00 0.07 0.00 66 1017.2
20260510155143 55 90 5.0 8.0 0.00 0.07 0.00 65 1017.2
20260510154644 55 88 5.0 9.0 0.00 0.07 0.00 64 1017.1
20260510154144 55 96 5.0 9.0 0.00 0.07 0.00 66 1017.2
20260510153618 55 86 4.0 8.0 0.00 0.07 0.00 65 1017.1
20260510153054 55 90 5.0 10.0 0.00 0.07 0.00 66 1017.1
20260510152551 55 90 5.0 10.0 0.00 0.07 0.00 66 1017.0
20260510152052 55 90 5.0 9.0 0.00 0.07 0.00 68 1017.1
20260510151550 55 82 5.0 9.0 0.00 0.07 0.00 65 1017.0
20260510151029 55 74 5.0 9.0 0.00 0.07 0.00 65 1017.0
20260510150457 55 109 5.0 10.0 0.00 0.07 0.00 65 1016.9
20260510145955 55 84 5.0 10.0 0.00 0.07 0.00 64 1016.8
20260510145433 55 94 5.0 9.0 0.00 0.07 0.00 65 1016.7
20260510144908 55 83 5.0 9.0 0.00 0.07 0.00 65 1016.8
20260510144338 54 90 6.0 9.0 0.00 0.07 0.00 67 1016.6
20260510143843 54 88 6.0 9.0 0.00 0.07 0.00 66 1016.6
20260510143308 54 95 6.0 10.0 0.00 0.07 0.00 65 1016.6
20260510142742 54 88 8.0 11.0 0.00 0.07 0.00 65 1016.6
20260510142212 54 57 8.0 12.0 0.00 0.07 0.00 66 1016.5
20260510141644 54 68 8.0 12.0 0.00 0.07 0.00 66 1016.5
20260510141142 54 89 6.0 11.0 0.00 0.07 0.00 65 1016.4
20260510140614 54 86 6.0 10.0 0.00 0.07 0.00 67 1016.5
20260510140112 54 86 6.0 11.0 0.00 0.07 0.00 66 1016.4
20260510135548 54 96 5.0 11.0 0.00 0.07 0.00 65 1016.5
20260510135042 54 85 5.0 11.0 0.00 0.07 0.00 67 1016.4
20260510134539 54 80 6.0 12.0 0.00 0.07 0.00 67 1016.4
20260510134015 53 111 7.0 12.0 0.00 0.07 0.00 66 1016.3
20260510133510 53 95 6.0 12.0 0.00 0.07 0.00 67 1016.3
20260510132942 53 80 6.0 12.0 0.00 0.07 0.00 65 1016.2
20260510132439 53 94 6.0 13.0 0.00 0.07 0.00 67 1016.0
20260510131914 53 75 6.0 13.0 0.00 0.07 0.00 66 1016.0
20260510131346 53 80 5.0 12.0 0.00 0.07 0.00 66 1015.9
20260510130845 53 96 5.0 10.0 0.00 0.07 0.00 65 1015.9
20260510130316 53 85 5.0 10.0 0.00 0.07 0.00 67 1015.8
20260510125813 52 0 6.0 12.0 0.00 0.07 0.00 65 1015.5
20260510125246 52 70 6.0 12.0 0.00 0.07 0.00 64 1015.5
20260510125016 52 50 5.0 11.0 0.00 0.07 0.00 64 1015.5
20260510124218 52 28 5.0 12.0 0.00 0.07 0.00 65 1015.4
20260510123653 51 286 6.0 12.0 0.00 0.07 0.00 64 1015.4
20260510123147 52 107 6.0 14.0 0.00 0.07 0.00 64 1015.3
20260510122640 52 26 5.0 13.0 0.00 0.07 0.00 62 1015.3
20260510122138 52 118 6.0 14.0 0.00 0.07 0.00 64 1015.2
20260510121610 52 88 7.0 14.0 0.00 0.07 0.00 66 1015.1
20260510121106 52 32 7.0 14.0 0.00 0.07 0.00 67 1015.1
20260510120540 51 67 6.0 14.0 0.00 0.07 0.00 68 1015.0
20260510120037 51 87 6.0 13.0 0.00 0.07 0.00 66 1014.9
20260510115540 51 21 7.0 15.0 0.00 0.07 0.00 67 1014.9
20260510115008 51 74 6.0 15.0 0.00 0.07 0.00 66 1014.7
20260510114441 51 100 7.0 14.0 0.00 0.07 0.00 67 1014.6
20260510114208 51 5 7.0 15.0 0.00 0.07 0.00 68 1014.5
20260510113412 50 59 6.0 15.0 0.00 0.07 0.00 66 1014.5
20260510112847 50 340 6.0 13.0 0.00 0.07 0.00 68 1014.3
20260510112319 50 146 7.0 13.0 0.00 0.07 0.00 69 1014.2
20260510111816 50 39 7.0 14.0 0.00 0.07 0.00 68 1014.1
20260510111248 50 88 8.0 14.0 0.00 0.07 0.00 70 1014.0
20260510110747 50 51 7.0 14.0 0.00 0.07 0.00 71 1013.8
20260510110244 50 26 8.0 17.0 0.00 0.07 0.00 72 1013.7
20260510105719 49 94 8.0 17.0 0.00 0.07 0.00 71 1013.7
20260510105148 50 92 6.0 12.0 0.00 0.07 0.00 73 1013.6
20260510104645 50 82 6.0 12.0 0.00 0.07 0.00 72 1013.6
20260510104119 50 69 8.0 15.0 0.00 0.07 0.00 73 1013.5
20260510103616 50 55 8.0 15.0 0.00 0.07 0.00 72 1013.4
20260510103114 50 100 8.0 17.0 0.00 0.07 0.00 75 1013.2
20260510102548 50 31 7.0 17.0 0.00 0.07 0.00 75 1013.1
20260510102044 50 81 6.0 15.0 0.00 0.07 0.00 77 1013.0
20260510101518 50 22 6.0 15.0 0.00 0.07 0.00 78 1012.8
20260510100951 50 44 6.0 14.0 0.00 0.07 0.00 80 1012.8
20260510100427 50 36 6.0 14.0 0.00 0.07 0.00 80 1012.8
20260510095858 51 48 7.0 14.0 0.00 0.07 0.00 80 1012.6
20260510095355 51 101 6.0 13.0 0.00 0.07 0.00 79 1012.6
20260510094828 51 42 6.0 12.0 0.00 0.07 0.00 78 1012.6
20260510094602 51 78 6.0 13.0 0.00 0.07 0.00 78 1012.3
20260510094026 51 94 6.0 13.0 0.00 0.07 0.00 76 1012.3
20260510093257 51 35 6.0 12.0 0.00 0.07 0.00 76 1012.2
20260510092752 51 98 5.0 11.0 0.00 0.07 0.00 75 1012.2
20260510092228 52 51 4.0 11.0 0.00 0.07 0.00 76 1012.0
20260510091700 52 88 5.0 11.0 0.00 0.07 0.00 74 1012.0
20260510091414 52 62 6.0 11.0 0.00 0.07 0.00 73 1011.8
20260510090632 52 85 5.0 11.0 0.00 0.07 0.00 72 1011.8
20260510090131 52 86 5.0 10.0 0.00 0.07 0.00 71 1011.8
20260510085606 52 42 5.0 10.0 0.00 0.07 0.00 71 1011.7
20260510085106 52 72 5.0 10.0 0.00 0.07 0.00 70 1011.6
20260510084539 52 75 5.0 10.0 0.00 0.07 0.00 72 1011.5
20260510084038 52 106 5.0 10.0 0.00 0.07 0.00 72 1011.5
20260510083536 52 85 4.0 9.0 0.00 0.07 0.00 72 1011.4
20260510083033 53 44 4.0 8.0 0.00 0.07 0.00 73 1011.4
20260510083004 52 76 3.0 8.0 0.00 0.07 0.00 73 1011.4
20260510082010 52 82 3.0 7.0 0.00 0.07 0.00 75 1011.4
20260510081734 52 62 2.0 7.0 0.00 0.07 0.00 75 1011.4
20260510081005 52 70 2.0 5.0 0.00 0.07 0.00 77 1011.4
20260510080442 52 78 3.0 7.0 0.00 0.07 0.00 77 1011.1
20260510075946 53 76 3.0 7.0 0.00 0.07 0.00 77 1010.9
20260510075418 53 44 3.0 7.0 0.00 0.07 0.00 78 1010.9
20260510074921 53 82 2.0 7.0 0.00 0.07 0.00 79 1010.7
20260510074407 53 53 2.0 5.0 0.00 0.07 0.00 79 1010.7
20260510073916 53 36 2.0 5.0 0.00 0.07 0.00 79 1010.6
20260510073350 53 34 3.0 9.0 0.00 0.07 0.00 79 1010.5
20260510073109 53 76 3.0 9.0 0.00 0.07 0.00 79 1010.5
20260510072331 53 92 3.0 7.0 0.00 0.07 0.00 79 1010.4
20260510071813 52 53 4.0 8.0 0.00 0.07 0.00 79 1010.2
20260510071313 52 86 5.0 8.0 0.00 0.07 0.00 79 1010.2
20260510070812 53 85 4.0 8.0 0.00 0.07 0.00 79 1010.1
20260510070312 53 88 5.0 9.0 0.00 0.07 0.00 80 1010.0
20260510065800 53 65 5.0 10.0 0.00 0.07 0.00 79 1010.0
20260510065253 53 82 4.0 10.0 0.00 0.07 0.00 79 1009.9
20260510064750 53 30 4.0 9.0 0.00 0.07 0.00 78 1010.0
20260510064227 53 28 4.0 9.0 0.00 0.07 0.00 78 1010.0
20260510063713 53 100 5.0 11.0 0.00 0.07 0.00 78 1010.0
20260510063212 53 82 6.0 13.0 0.00 0.07 0.00 78 1009.9
20260510062643 53 47 6.0 13.0 0.00 0.07 0.00 77 1009.6
20260510062631 54 84 7.0 13.0 0.00 0.07 0.00 77 1009.6
20260510061619 54 97 8.0 13.0 0.00 0.07 0.00 77 1009.4
20260510061055 54 55 7.0 13.0 0.00 0.07 0.00 77 1009.4
20260510060554 54 130 7.0 14.0 0.00 0.07 0.00 78 1009.4
20260510060101 54 72 7.0 16.0 0.00 0.07 0.00 78 1009.3
20260510055555 54 66 7.0 16.0 0.00 0.07 0.00 78 1009.3
20260510055041 54 87 8.0 19.0 0.00 0.07 0.00 77 1009.1
20260510054535 54 60 9.0 20.0 0.00 0.07 0.00 77 1009.1
20260510054011 54 60 9.0 20.0 0.00 0.07 0.00 76 1009.0
20260510053442 54 48 9.0 22.0 0.00 0.07 0.00 76 1008.9
20260510052917 55 39 9.0 22.0 0.00 0.07 0.00 75 1008.7
20260510052412 55 74 10.0 19.0 0.00 0.07 0.00 76 1008.7
20260510052132 55 33 9.0 19.0 0.00 0.07 0.00 76 1008.7
20260510051358 55 69 8.0 17.0 0.00 0.07 0.00 76 1008.6
20260510050854 55 70 8.0 17.0 0.00 0.07 0.00 76 1008.5
20260510050350 56 42 7.0 17.0 0.00 0.07 0.00 76 1008.3
20260510045849 57 94 7.0 15.0 0.00 0.07 0.00 75 1008.3
20260510045326 58 69 8.0 19.0 0.00 0.07 0.00 74 1008.2
20260510044828 58 19 7.0 19.0 0.00 0.07 0.00 73 1007.8
20260510044302 59 44 6.0 18.0 0.00 0.07 0.00 72 1007.6
20260510043805 60 325 6.0 18.0 0.00 0.07 0.00 73 1007.4
20260510043235 60 288 4.0 10.0 0.00 0.07 0.00 77 1007.2
20260510042718 60 257 4.0 9.0 0.00 0.07 0.00 79 1006.8
20260510042211 60 321 4.0 9.0 0.00 0.07 0.00 81 1006.9
20260510041709 60 306 4.0 10.0 0.00 0.07 0.00 82 1006.8
20260510041205 60 275 3.0 10.0 0.00 0.07 0.00 82 1006.7
20260510040703 60 257 2.0 9.0 0.00 0.07 0.00 81 1006.5
20260510040144 61 307 3.0 9.0 0.00 0.07 0.00 81 1006.4
20260510035613 61 240 4.0 9.0 0.00 0.07 0.07 79 1006.2
20260510035049 61 309 3.0 9.0 0.00 0.07 0.07 79 1006.1
20260510034520 61 274 3.0 7.0 0.00 0.07 0.07 80 1005.9
20260510034008 60 252 3.0 10.0 0.00 0.07 0.07 80 1005.8
20260510033447 60 248 3.0 10.0 0.00 0.07 0.07 80 1005.8
20260510032942 60 225 3.0 8.0 0.00 0.07 0.07 80 1005.7
20260510032707 60 245 2.0 8.0 0.00 0.07 0.07 81 1005.5
20260510032135 60 251 2.0 6.0 0.00 0.07 0.07 81 1005.5
20260510031415 60 273 2.0 6.0 0.00 0.07 0.07 80 1005.5
20260510030923 60 201 3.0 6.0 0.00 0.07 0.07 80 1005.4
20260510030352 60 192 2.0 6.0 0.00 0.07 0.07 81 1005.4
20260510025835 60 265 2.0 6.0 0.00 0.07 0.07 81 1005.3
20260510025316 60 218 2.0 5.0 0.00 0.07 0.07 80 1005.3
20260510024753 60 219 3.0 9.0 0.00 0.07 0.07 80 1005.4
20260510024300 60 274 3.0 9.0 0.00 0.07 0.07 80 1005.4
20260510023751 60 176 3.0 5.0 0.00 0.07 0.07 80 1005.3
20260510023244 60 252 3.0 9.0 0.00 0.07 0.07 80 1005.2
20260510022741 60 250 3.0 9.0 0.00 0.07 0.07 81 1005.1
20260510022234 60 195 3.0 7.0 0.00 0.07 0.07 81 1005.0
20260510021732 60 204 2.0 6.0 0.00 0.07 0.07 81 1005.1
20260510021230 61 269 2.0 6.0 0.00 0.07 0.07 81 1005.1
20260510020705 61 259 3.0 7.0 0.00 0.07 0.07 80 1005.1
20260510020147 61 232 4.0 11.0 0.00 0.07 0.07 80 1005.1
20260510015645 61 247 4.0 11.0 0.00 0.07 0.07 80 1005.2
20260510015145 61 200 4.0 10.0 0.00 0.07 0.07 81 1005.0
20260510014616 60 290 4.0 8.0 0.00 0.07 0.07 82 1005.0
20260510014055 60 225 3.0 8.0 0.00 0.07 0.07 82 1005.0
20260510013553 60 234 3.0 6.0 0.00 0.07 0.07 82 1005.0
20260510013045 60 225 2.0 6.0 0.00 0.07 0.07 82 1004.6
20260510012524 60 260 2.0 4.0 0.00 0.07 0.07 82 1004.6
20260510012028 60 260 2.0 4.0 0.00 0.07 0.07 82 1004.5
20260510011525 60 275 2.0 4.0 0.00 0.07 0.07 82 1004.5
20260510011026 60 223 2.0 4.0 0.00 0.07 0.07 81 1004.4
20260510010523 60 223 2.0 4.0 0.00 0.07 0.07 81 1004.4
20260510005956 60 215 2.0 4.0 0.00 0.07 0.07 81 1004.4
20260510005453 61 208 2.0 6.0 0.00 0.07 0.07 80 1004.3
20260510004949 61 210 2.0 8.0 0.00 0.07 0.07 80 1004.3
20260510004438 61 271 2.0 8.0 0.00 0.07 0.07 79 1004.3
20260510003945 61 252 3.0 7.0 0.00 0.07 0.07 79 1004.3
20260510003412 61 245 3.0 9.0 0.00 0.07 0.07 78 1004.3
20260510002847 62 223 3.0 9.0 0.00 0.07 0.07 78 1004.3
20260510002323 62 256 4.0 10.0 0.00 0.07 0.07 78 1004.3
20260510001755 62 232 4.0 10.0 0.00 0.07 0.07 77 1004.2
20260510001251 62 267 4.0 10.0 0.00 0.07 0.07 77 1004.1
20260510000727 62 294 4.0 9.0 0.00 0.07 0.07 77 1004.2
20260510000157 62 242 4.0 10.0 0.00 0.07 0.07 77 1004.2
20260509235655 62 259 4.0 9.0 0.00 0.07 0.07 78 1004.3
20260509235130 62 228 4.0 11.0 0.00 0.07 0.07 79 1004.2
20260509234604 62 254 4.0 11.0 0.00 0.07 0.07 78 1004.2
20260509234058 62 98 3.0 10.0 0.00 0.07 0.07 78 1004.1
20260509233603 62 229 3.0 8.0 0.00 0.07 0.07 78 1004.1
20260509233030 62 252 4.0 11.0 0.00 0.07 0.07 77 1004.1
20260509232459 62 262 5.0 11.0 0.00 0.07 0.07 78 1004.1
20260509232003 62 259 5.0 10.0 0.00 0.07 0.07 78 1004.1
20260509231453 62 261 5.0 10.0 0.00 0.07 0.07 78 1004.0
20260509230958 62 246 5.0 12.0 0.00 0.07 0.07 78 1004.1
20260509230443 62 263 5.0 12.0 0.00 0.08 0.07 79 1004.0
20260509230203 62 239 5.0 10.0 0.00 0.08 0.07 80 1004.0
20260509225415 62 228 4.0 12.0 0.00 0.08 0.07 81 1004.1
20260509224847 61 149 4.0 12.0 0.05 0.09 0.07 82 1004.1
20260509224343 61 249 5.0 12.0 0.07 0.09 0.07 81 1004.1
20260509223838 61 264 5.0 12.0 0.07 0.09 0.07 81 1004.0
20260509223334 61 263 5.0 13.0 0.07 0.09 0.07 81 1004.0
20260509222810 60 270 5.0 13.0 0.07 0.09 0.07 83 1004.1
20260509222244 60 257 4.0 11.0 0.07 0.09 0.07 85 1004.1
20260509221741 60 273 5.0 11.0 0.07 0.09 0.07 86 1004.0
20260509221220 60 277 5.0 15.0 0.07 0.09 0.07 87 1003.9
20260509220710 59 276 5.0 15.0 0.07 0.09 0.07 88 1003.7
20260509220158 59 292 5.0 15.0 0.07 0.09 0.07 87 1004.0
20260509215701 60 292 6.0 20.0 0.07 0.09 0.07 85 1004.0
20260509215421 61 321 8.0 24.0 0.05 0.07 0.06 81 1003.9
20260509214654 65 289 8.0 24.0 0.00 0.02 0.00 74 1004.0
20260509214127 69 300 6.0 13.0 0.00 0.02 0.00 63 1003.2
20260509213626 69 247 7.0 15.0 0.00 0.02 0.00 63 1002.2
20260509213338 70 240 7.0 15.0 0.00 0.02 0.00 63 1001.9
20260509212613 70 259 6.0 14.0 0.00 0.02 0.00 62 1001.6
20260509212053 70 263 6.0 16.0 0.00 0.02 0.00 64 1001.6
20260509211742 70 240 6.0 16.0 0.00 0.02 0.00 63 1001.8
20260509211018 70 267 6.0 12.0 0.00 0.02 0.00 63 1001.5
20260509210516 70 222 6.0 12.0 0.00 0.02 0.00 63 1001.5
20260509210013 71 221 7.0 14.0 0.00 0.02 0.00 63 1001.5
20260509205448 71 241 7.0 14.0 0.00 0.02 0.00 62 1001.2
20260509204943 71 247 7.0 16.0 0.00 0.02 0.00 60 1001.6
20260509204417 71 242 7.0 17.0 0.00 0.02 0.00 60 1001.7
20260509204112 71 248 5.0 17.0 0.00 0.02 0.00 63 1001.6
20260509203324 72 219 6.0 11.0 0.00 0.02 0.00 62 1001.8
20260509203024 72 232 6.0 16.0 0.00 0.02 0.00 63 1001.9
20260509202257 72 193 5.0 11.0 0.00 0.02 0.00 64 1002.1
20260509201955 72 250 6.0 15.0 0.00 0.02 0.00 62 1002.2